Location: Boiro
(42.6475°N, 8.8834°W)
Time: 08:05:24
(UTC+02:00)

Tiangong - Visible Passes

Search period start: 26 October 2021 00:00
Search period end: 04 November 2021 23:00
Orbit: 381 x 390 km, 41.5° (Epoch: 25 October)

Date Brightness Start Highest point End Pass type
(mag) Time Alt. Az. Time Alt. Az. Time Alt. Az.
26 Oct 2.7 21:33:28 10° W 21:35:54 31° SW 21:35:54 31° SW visible
27 Oct 1.9 20:33:52 10° W 20:36:58 46° SSW 20:39:20 15° SE visible
28 Oct 3.1 21:11:27 10° WSW 21:13:59 22° SSW 21:15:04 18° S visible
29 Oct 2.7 20:11:37 10° W 20:14:32 32° SSW 20:17:26 10° SE visible
30 Oct 3.9 20:49:38 10° WSW 20:51:22 14° SSW 20:53:05 10° S visible
